Weather History for KMGM - January, 2014

Change the Weather History Date:

Sunday, January 12, 2014

  Actual Average Record
Temperature  
Mean Temperature 49 °F 46 °F  
Max Temperature 65 °F 57 °F 80 °F (2013)
Min Temperature 33 °F 35 °F 12 °F (1918)
Degree Days  
Heating Degree Days 16 19  
Month to date heating degree days 291 228  
Since 1 July heating degree days 1085 1116  
Moisture  
Dew Point 34 °F    
Average Humidity 62    
Maximum Humidity 96    
Minimum Humidity 28    
Precipitation  
Precipitation 0.00 in 0.14 in 2.24 in (1892)
Month to date precipitation 1.90 1.63  
Year to date precipitation 1.90 1.63  
Snow  
Snow 0.00 in 0.00 in - ()
Month to date snowfall 0.0 0.0  
Since 1 July snowfall 0.0 0.1  
Snow Depth 0.00 in    
Sea Level Pressure  
Sea Level Pressure 30.15 in    
Wind  
Wind Speed 3 mph (SSW)    
Max Wind Speed 9 mph    
Max Gust Speed 12 mph    
Visibility 10 miles    
Events      
T = Trace of Precipitation, MM = Missing Value Source: NWS Daily Summary

Daily Weather History Graph

Daily Weather History Graph

Search for Another Location

Airport or City:

Trip Planner

Search our weather history database for the weather conditions in past years. The results will help you decide how hot, cold, wet, or windy it might be!

Date:

Astronomy

Jan. 12, 2014 Rise Set
Actual Time 6:47 AM CST 5:00 PM CST
Civil Twilight 6:20 AM CST 5:27 PM CST
Nautical Twilight 5:50 AM CST 5:57 PM CST
Astronomical Twilight 5:21 AM CST 6:27 PM CST
Moon 2:26 PM CST (1/12) 3:47 AM CST (1/12)
Length of Visible Light 11h 06m
Length of Day
10h 13m
Waxing Gibbous, 90% of the Moon is Illuminated
Jan 12
Waxing Gibbous
Jan 15
Full
Jan 23
Last Quarter
Jan 30
New
Feb 6
First Quarter

Hourly Weather History & Observations

Time (CST) Temp. Windchill Dew Point Humidity Pressure Visibility Wind Dir Wind Speed Gust Speed Precip Events Conditions
12:53 AM 45.0 °F 41.2 °F 36.0 °F 71% 30.07 in 10.0 mi SW 6.9 mph - N/A   Clear
1:53 AM 45.0 °F 41.8 °F 36.0 °F 71% 30.08 in 10.0 mi West 5.8 mph - N/A   Clear
2:53 AM 37.9 °F - 35.1 °F 89% 30.09 in 10.0 mi Calm Calm - N/A   Clear
3:53 AM 36.0 °F 33.3 °F 33.1 °F 89% 30.11 in 10.0 mi SSW 3.5 mph - N/A   Clear
4:53 AM 37.0 °F - 34.0 °F 89% 30.12 in 10.0 mi Calm Calm - N/A   Clear
5:53 AM 34.0 °F 31.0 °F 32.0 °F 92% 30.14 in 10.0 mi SW 3.5 mph - N/A   Clear
6:53 AM 35.1 °F 32.2 °F 33.1 °F 92% 30.17 in 10.0 mi SSW 3.5 mph - N/A   Clear
7:53 AM 39.9 °F - 37.9 °F 93% 30.19 in 10.0 mi Calm Calm - N/A   Clear
8:53 AM 48.0 °F - 39.9 °F 74% 30.23 in 10.0 mi Calm Calm - N/A   Clear
9:53 AM 54.0 °F - 39.9 °F 59% 30.23 in 10.0 mi Calm Calm - N/A   Clear
10:53 AM 57.0 °F - 39.0 °F 51% 30.21 in 10.0 mi South 3.5 mph - N/A   Clear
11:53 AM 60.1 °F - 37.0 °F 42% 30.17 in 10.0 mi Variable 3.5 mph - N/A   Clear
12:53 PM 62.1 °F - 34.0 °F 35% 30.16 in 10.0 mi Variable 4.6 mph - N/A   Clear
1:53 PM 64.0 °F - 30.9 °F 29% 30.13 in 10.0 mi Calm Calm - N/A   Clear
2:53 PM 64.0 °F - 30.9 °F 29% 30.13 in 10.0 mi SSW 4.6 mph - N/A   Clear
3:53 PM 64.9 °F - 30.0 °F 27% 30.12 in 10.0 mi Calm Calm - N/A   Clear
4:53 PM 59.0 °F - 33.1 °F 38% 30.13 in 10.0 mi SSE 5.8 mph - N/A   Clear
5:53 PM 55.0 °F - 32.0 °F 42% 30.14 in 10.0 mi SSE 4.6 mph - N/A   Clear
6:53 PM 52.0 °F - 33.1 °F 49% 30.15 in 10.0 mi SSE 5.8 mph - N/A   Clear
7:53 PM 52.0 °F - 33.1 °F 49% 30.15 in 10.0 mi South 4.6 mph - N/A   Clear
8:53 PM 50.0 °F - 33.1 °F 52% 30.16 in 10.0 mi Calm Calm - N/A   Clear
9:53 PM 48.9 °F - 34.0 °F 56% 30.16 in 10.0 mi South 5.8 mph - N/A   Clear
10:53 PM 45.0 °F - 34.0 °F 65% 30.16 in 10.0 mi Calm Calm - N/A   Clear
11:53 PM 43.0 °F - 34.0 °F 71% 30.15 in 10.0 mi Calm Calm - N/A   Clear